Time,TemperatureF,DewpointF,PressureIn,WindDirection,WindDirectionDegrees,WindSpeedMPH,WindSpeedGustMPH,Humidity,HourlyPrecipIn,Conditions,Clouds,dailyrainin,SoftwareType,DateUTC
2013-03-07 00:01:00,43.1,35.0,29.93,North,355,4.0,17.0,74,0.00,,,0.00,weatherlink.com 1.10,2013-03-07 05:01:00,
2013-03-07 00:16:00,43.0,35.0,29.93,NNW,331,7.0,21.0,73,0.00,,,0.00,weatherlink.com 1.10,2013-03-07 05:16:00,
2013-03-07 00:31:00,43.0,35.0,29.93,North,360,7.0,18.0,72,0.00,,,0.00,weatherlink.com 1.10,2013-03-07 05:31:00,
2013-03-07 00:46:00,43.0,35.0,29.93,NNW,340,7.0,18.0,72,0.00,,,0.00,weatherlink.com 1.10,2013-03-07 05:46:00,
2013-03-07 01:01:00,43.0,34.0,29.94,North,355,6.0,20.0,71,0.00,,,0.00,weatherlink.com 1.10,2013-03-07 06:01:00,
2013-03-07 01:16:00,43.0,34.0,29.95,NNW,346,5.0,21.0,70,0.00,,,0.00,weatherlink.com 1.10,2013-03-07 06:16:00,
2013-03-07 01:31:00,43.1,34.0,29.96,North,360,11.0,21.0,69,0.00,,,0.00,weatherlink.com 1.10,2013-03-07 06:31:00,
2013-03-07 01:46:00,43.1,34.0,29.97,NNW,338,9.0,19.0,69,0.00,,,0.00,weatherlink.com 1.10,2013-03-07 06:46:00,
2013-03-07 02:01:00,42.9,33.0,29.97,North,5,8.0,20.0,69,0.00,,,0.00,weatherlink.com 1.10,2013-03-07 07:01:00,
2013-03-07 02:16:00,42.7,33.0,29.97,NNW,348,8.0,19.0,69,0.00,,,0.00,weatherlink.com 1.10,2013-03-07 07:16:00,
2013-03-07 02:31:00,42.4,33.0,29.97,NNW,330,10.0,16.0,69,0.00,,,0.00,weatherlink.com 1.10,2013-03-07 07:31:00,
2013-03-07 02:46:00,41.9,32.0,29.98,North,5,7.0,17.0,69,0.00,,,0.00,weatherlink.com 1.10,2013-03-07 07:46:00,
2013-03-07 03:01:00,41.0,32.0,29.98,NW,306,6.0,12.0,71,0.00,,,0.00,weatherlink.com 1.10,2013-03-07 08:01:00,
2013-03-07 03:16:00,40.3,32.0,29.99,NW,313,9.0,12.0,73,0.00,,,0.00,weatherlink.com 1.10,2013-03-07 08:16:00,
2013-03-07 03:31:00,39.8,32.0,29.99,NNW,341,5.0,15.0,75,0.00,,,0.00,weatherlink.com 1.10,2013-03-07 08:31:00,
2013-03-07 03:46:00,39.9,33.0,29.99,WNW,291,7.0,14.0,75,0.00,,,0.00,weatherlink.com 1.10,2013-03-07 08:46:00,
2013-03-07 04:01:00,39.8,32.0,30.00,North,360,8.0,15.0,75,0.00,,,0.00,weatherlink.com 1.10,2013-03-07 09:01:00,
2013-03-07 04:16:00,39.5,32.0,30.01,North,350,4.0,14.0,75,0.00,,,0.00,weatherlink.com 1.10,2013-03-07 09:16:00,
2013-03-07 04:31:00,39.2,32.0,30.01,North,355,4.0,13.0,76,0.00,,,0.00,weatherlink.com 1.10,2013-03-07 09:31:00,
2013-03-07 04:47:00,39.0,32.0,30.01,NNW,344,6.0,13.0,76,0.00,,,0.00,weatherlink.com 1.10,2013-03-07 09:47:00,
2013-03-07 05:02:00,38.8,32.0,30.02,NNE,21,3.0,12.0,76,0.00,,,0.00,weatherlink.com 1.10,2013-03-07 10:02:00,
2013-03-07 05:17:00,38.5,32.0,30.02,NNW,330,9.0,12.0,77,0.00,,,0.00,weatherlink.com 1.10,2013-03-07 10:17:00,
2013-03-07 05:32:00,38.3,32.0,30.03,WNW,298,7.0,9.0,77,0.00,,,0.00,weatherlink.com 1.10,2013-03-07 10:32:00,
2013-03-07 05:47:00,38.1,32.0,30.04,West,281,3.0,10.0,78,0.00,,,0.00,weatherlink.com 1.10,2013-03-07 10:47:00,
2013-03-07 06:02:00,37.3,31.0,30.05,NW,315,6.0,9.0,78,0.00,,,0.00,weatherlink.com 1.10,2013-03-07 11:02:00,
2013-03-07 06:17:00,36.6,31.0,30.06,NW,304,4.0,8.0,79,0.00,,,0.00,weatherlink.com 1.10,2013-03-07 11:17:00,
2013-03-07 06:32:00,35.9,30.0,30.06,WNW,296,4.0,8.0,80,0.00,,,0.00,weatherlink.com 1.10,2013-03-07 11:32:00,
2013-03-07 06:47:00,35.9,31.0,30.07,NNW,333,6.0,13.0,81,0.00,,,0.00,weatherlink.com 1.10,2013-03-07 11:47:00,
2013-03-07 07:02:00,36.4,31.0,30.07,WNW,288,4.0,10.0,82,0.00,,,0.00,weatherlink.com 1.10,2013-03-07 12:02:00,
2013-03-07 07:17:00,36.3,31.0,30.08,NW,323,7.0,10.0,81,0.00,,,0.00,weatherlink.com 1.10,2013-03-07 12:17:00,
2013-03-07 07:32:00,37.2,32.0,30.10,NW,325,4.0,12.0,81,0.00,,,0.00,weatherlink.com 1.10,2013-03-07 12:32:00,
2013-03-07 07:47:00,38.3,32.0,30.10,NW,317,5.0,10.0,79,0.00,,,0.00,weatherlink.com 1.10,2013-03-07 12:47:00,
2013-03-07 08:02:00,39.9,33.0,30.11,WNW,303,7.0,13.0,75,0.00,,,0.00,weatherlink.com 1.10,2013-03-07 13:02:00,
2013-03-07 08:17:00,41.0,33.0,30.12,NNW,348,11.0,20.0,74,0.00,,,0.00,weatherlink.com 1.10,2013-03-07 13:17:00,
2013-03-07 08:32:00,41.9,34.0,30.11,NW,322,12.0,15.0,73,0.00,,,0.00,weatherlink.com 1.10,2013-03-07 13:32:00,
2013-03-07 09:02:00,44.0,34.0,30.11,NNE,33,11.0,16.0,68,0.00,,,0.00,weatherlink.com 1.10,2013-03-07 14:02:00,
2013-03-07 09:17:00,45.2,34.0,30.11,NNW,339,12.0,18.0,65,0.00,,,0.00,weatherlink.com 1.10,2013-03-07 14:17:00,
2013-03-07 09:32:00,45.9,33.0,30.11,NNE,16,11.0,19.0,62,0.00,,,0.00,weatherlink.com 1.10,2013-03-07 14:32:00,
2013-03-07 09:47:00,46.5,33.0,30.11,NW,309,8.0,22.0,59,0.00,,,0.00,weatherlink.com 1.10,2013-03-07 14:47:00,
2013-03-07 10:02:00,47.2,33.0,30.11,NNE,31,11.0,23.0,59,0.00,,,0.00,weatherlink.com 1.10,2013-03-07 15:02:00,
2013-03-07 10:17:00,47.9,33.0,30.10,NE,41,17.0,24.0,56,0.00,,,0.00,weatherlink.com 1.10,2013-03-07 15:17:00,
2013-03-07 10:32:00,48.5,33.0,30.09,NNE,22,9.0,24.0,55,0.00,,,0.00,weatherlink.com 1.10,2013-03-07 15:32:00,
2013-03-07 10:47:00,49.5,34.0,30.10,NE,54,8.0,15.0,56,0.00,,,0.00,weatherlink.com 1.10,2013-03-07 15:47:00,
2013-03-07 11:02:00,49.9,33.0,30.10,NNE,15,10.0,25.0,52,0.00,,,0.00,weatherlink.com 1.10,2013-03-07 16:02:00,
2013-03-07 11:18:00,50.3,32.0,30.10,NE,45,6.0,24.0,50,0.00,,,0.00,weatherlink.com 1.10,2013-03-07 16:18:00,
2013-03-07 11:33:00,50.9,34.0,30.10,North,355,11.0,17.0,53,0.00,,,0.00,weatherlink.com 1.10,2013-03-07 16:33:00,
2013-03-07 11:48:00,51.1,34.0,30.09,NW,312,4.0,23.0,52,0.00,,,0.00,weatherlink.com 1.10,2013-03-07 16:48:00,
2013-03-07 12:03:00,51.9,34.0,30.09,NNE,13,4.0,16.0,51,0.00,,,0.00,weatherlink.com 1.10,2013-03-07 17:03:00,
2013-03-07 12:18:00,52.2,34.0,30.08,NW,322,11.0,18.0,51,0.00,,,0.00,weatherlink.com 1.10,2013-03-07 17:18:00,
2013-03-07 12:33:00,53.0,34.0,30.08,North,355,9.0,15.0,49,0.00,,,0.00,weatherlink.com 1.10,2013-03-07 17:33:00,
2013-03-07 13:03:00,52.9,33.0,30.07,NW,308,13.0,15.0,48,0.00,,,0.00,weatherlink.com 1.10,2013-03-07 18:03:00,
2013-03-07 13:18:00,53.6,35.0,30.07,North,355,9.0,14.0,49,0.00,,,0.00,weatherlink.com 1.10,2013-03-07 18:18:00,
2013-03-07 13:33:00,54.1,35.0,30.05,NNE,13,9.0,17.0,48,0.00,,,0.00,weatherlink.com 1.10,2013-03-07 18:33:00,
2013-03-07 13:48:00,54.3,35.0,30.05,NNE,22,5.0,15.0,48,0.00,,,0.00,weatherlink.com 1.10,2013-03-07 18:48:00,
2013-03-07 14:03:00,54.6,35.0,30.04,NW,321,7.0,19.0,47,0.00,,,0.00,weatherlink.com 1.10,2013-03-07 19:03:00,
2013-03-07 14:18:00,55.3,35.0,30.04,North,360,7.0,11.0,47,0.00,,,0.00,weatherlink.com 1.10,2013-03-07 19:18:00,
2013-03-07 14:33:00,54.8,35.0,30.04,NNW,344,11.0,19.0,48,0.00,,,0.00,weatherlink.com 1.10,2013-03-07 19:33:00,
2013-03-07 14:48:00,54.7,35.0,30.05,North,355,8.0,16.0,48,0.00,,,0.00,weatherlink.com 1.10,2013-03-07 19:48:00,
2013-03-07 15:03:00,55.8,37.0,30.05,North,355,7.0,14.0,49,0.00,,,0.00,weatherlink.com 1.10,2013-03-07 20:03:00,
2013-03-07 15:18:00,54.9,35.0,30.05,NNW,341,7.0,19.0,47,0.00,,,0.00,weatherlink.com 1.10,2013-03-07 20:18:00,
2013-03-07 15:33:00,55.0,36.0,30.05,NNE,33,4.0,16.0,49,0.00,,,0.00,weatherlink.com 1.10,2013-03-07 20:33:00,
2013-03-07 15:48:00,54.9,37.0,30.06,NNE,27,3.0,16.0,51,0.00,,,0.00,weatherlink.com 1.10,2013-03-07 20:48:00,
2013-03-07 16:03:00,54.5,35.0,30.06,North,355,10.0,15.0,48,0.00,,,0.00,weatherlink.com 1.10,2013-03-07 21:03:00,
2013-03-07 16:18:00,54.4,34.0,30.06,NNW,331,6.0,16.0,47,0.00,,,0.00,weatherlink.com 1.10,2013-03-07 21:18:00,
2013-03-07 16:33:00,54.6,37.0,30.07,NNE,29,7.0,13.0,51,0.00,,,0.00,weatherlink.com 1.10,2013-03-07 21:33:00,
2013-03-07 16:48:00,54.4,36.0,30.07,NNE,22,7.0,18.0,51,0.00,,,0.00,weatherlink.com 1.10,2013-03-07 21:48:00,
2013-03-07 17:03:00,54.1,37.0,30.07,NNW,334,4.0,13.0,52,0.00,,,0.00,weatherlink.com 1.10,2013-03-07 22:03:00,
2013-03-07 17:18:00,53.9,36.0,30.07,NW,315,13.0,13.0,51,0.00,,,0.00,weatherlink.com 1.10,2013-03-07 22:18:00,
2013-03-07 17:33:00,53.4,36.0,30.08,North,5,7.0,11.0,52,0.00,,,0.00,weatherlink.com 1.10,2013-03-07 22:33:00,
2013-03-07 17:48:00,52.8,37.0,30.09,NNE,25,2.0,8.0,55,0.00,,,0.00,weatherlink.com 1.10,2013-03-07 22:48:00,
2013-03-07 18:03:00,51.4,36.0,30.10,North,9,6.0,12.0,56,0.00,,,0.00,weatherlink.com 1.10,2013-03-07 23:03:00,
2013-03-07 18:18:00,50.6,36.0,30.10,NNE,15,5.0,9.0,57,0.00,,,0.00,weatherlink.com 1.10,2013-03-07 23:18:00,
2013-03-07 18:33:00,50.1,37.0,30.11,NNE,21,4.0,12.0,60,0.00,,,0.00,weatherlink.com 1.10,2013-03-07 23:33:00,
2013-03-07 18:48:00,49.8,37.0,30.12,NE,42,4.0,11.0,61,0.00,,,0.00,weatherlink.com 1.10,2013-03-07 23:48:00,
2013-03-07 19:03:00,49.4,37.0,30.13,NE,37,5.0,13.0,62,0.00,,,0.00,weatherlink.com 1.10,2013-03-08 00:03:00,
2013-03-07 19:33:00,48.5,37.0,30.14,NNE,24,4.0,9.0,64,0.00,,,0.00,weatherlink.com 1.10,2013-03-08 00:33:00,
2013-03-07 19:48:00,48.0,36.0,30.14,NE,44,6.0,12.0,64,0.00,,,0.00,weatherlink.com 1.10,2013-03-08 00:48:00,
2013-03-07 20:03:00,47.7,36.0,30.15,NNE,25,4.0,14.0,64,0.00,,,0.00,weatherlink.com 1.10,2013-03-08 01:03:00,
2013-03-07 20:18:00,47.4,35.0,30.15,NNE,32,3.0,12.0,63,0.00,,,0.00,weatherlink.com 1.10,2013-03-08 01:18:00,
2013-03-07 20:33:00,47.1,35.0,30.15,NNE,28,4.0,12.0,64,0.00,,,0.00,weatherlink.com 1.10,2013-03-08 01:33:00,
2013-03-07 20:48:00,46.7,35.0,30.15,NNE,13,5.0,11.0,65,0.00,,,0.00,weatherlink.com 1.10,2013-03-08 01:48:00,
2013-03-07 21:03:00,46.4,35.0,30.16,NNE,23,4.0,9.0,65,0.00,,,0.00,weatherlink.com 1.10,2013-03-08 02:03:00,
2013-03-07 21:18:00,46.2,35.0,30.16,NNE,22,2.0,8.0,65,0.00,,,0.00,weatherlink.com 1.10,2013-03-08 02:18:00,
2013-03-07 21:33:00,46.0,34.0,30.16,NE,46,5.0,8.0,64,0.00,,,0.00,weatherlink.com 1.10,2013-03-08 02:33:00,
2013-03-07 21:49:00,45.6,34.0,30.16,NNE,13,1.0,8.0,65,0.00,,,0.00,weatherlink.com 1.10,2013-03-08 02:49:00,
2013-03-07 22:03:00,45.5,34.0,30.16,NNE,23,5.0,8.0,65,0.00,,,0.00,weatherlink.com 1.10,2013-03-08 03:03:00,
2013-03-07 22:33:00,45.0,35.0,30.16,NNE,29,3.0,7.0,67,0.00,,,0.00,weatherlink.com 1.10,2013-03-08 03:33:00,
2013-03-07 22:48:00,44.8,34.0,30.16,NNW,342,3.0,8.0,67,0.00,,,0.00,weatherlink.com 1.10,2013-03-08 03:48:00,
2013-03-07 23:03:00,44.4,34.0,30.16,NE,36,2.0,6.0,68,0.00,,,0.00,weatherlink.com 1.10,2013-03-08 04:03:00,
2013-03-07 23:18:00,44.0,34.0,30.17,NNE,19,2.0,6.0,69,0.00,,,0.00,weatherlink.com 1.10,2013-03-08 04:18:00,
2013-03-07 23:33:00,43.8,34.0,30.16,NNE,12,5.0,10.0,68,0.00,,,0.00,weatherlink.com 1.10,2013-03-08 04:33:00,
2013-03-07 23:48:00,43.4,34.0,30.17,NE,45,1.0,8.0,69,0.00,,,0.00,weatherlink.com 1.10,2013-03-08 04:48:00,